Voltar ao catálogo

CZ-6A DEB

AtivoPO
NORAD 60962·DEBRIS·🇨🇳 China

Lançado Aug 6, 2024 de Taiyuan Satellite Launch Center

Loading…

Próximas Passagens (próximas 24 horas)

TLE

AtualizadoSource: Space-Track

Época: Sep 13, 2026, 17:49 UTC

1 60962U 24140LM  26256.74287185  .00000818  00000-0  35567-3 0  9993
2 60962  89.0162 266.2556 0041260 226.1039 133.6744 14.22771428107148

Acompanhe CZ-6A DEB em tempo real com AllMySat

Download on the App Store